Weather History for Kansas City International, MO

Change the Weather History Date:

Friday, February 8, 2013

  Actual Average Record
Temperature  
Mean Temperature 36 °F 31 °F  
Max Temperature 42 °F 41 °F 68 °F (1938)
Min Temperature 29 °F 22 °F -13 °F (1933)
Degree Days  
Heating Degree Days 29 34  
Month to date heating degree days 237 276  
Since 1 July heating degree days 3064 3440  
Cooling Degree Days 0 0  
Month to date cooling degree days 0 0  
Year to date cooling degree days 0 0  
Moisture  
Dew Point 25 °F    
Average Humidity 70    
Maximum Humidity 85    
Minimum Humidity 55    
Precipitation  
Precipitation 0.00 in 0.06 in 1.31 in (2001)
Month to date precipitation 0.34 0.38  
Year to date precipitation 1.37 1.45  
Snow  
Snow 0.00 in 0.20 in 3.70 in (1905)
Month to date snowfall 0.0 1.7  
Since 1 July snowfall 4.7 12.5  
Snow Depth 0.00 in    
Sea Level Pressure  
Sea Level Pressure 30.30 in    
Wind  
Wind Speed 8 mph (ENE)    
Max Wind Speed 16 mph    
Max Gust Speed 20 mph    
Visibility 10 miles    
Events      
T = Trace of Precipitation, MM = Missing Value Source: NWS Daily Summary

Daily Weather History Graph

Daily Weather History Graph

Search for Another Location

Airport:

Trip Planner

Search our weather history database for the weather conditions in past years. The results will help you decide how hot, cold, wet, or windy it might be!

Date:

Astronomy

Feb. 08, 2013 Rise Set
Actual Time 7:18 AM CST 5:48 PM CST
Civil Twilight 6:50 AM CST 6:15 PM CST
Nautical Twilight 6:19 AM CST 6:47 PM CST
Astronomical Twilight 5:47 AM CST 7:18 PM CST
Moon 5:47 AM CST (2/8) 4:22 PM CST (2/8)
Length of Visible Light 11h 25m
Length of Day
10h 29m
Waning Crescent, 3% of the Moon is Illuminated
Feb 8
Waning Crescent
Feb 10
New
Feb 17
First Quarter
Feb 25
Full
Mar 4
Last Quarter

Hourly Weather History & Observations

Time (CST) Temp. Windchill Dew Point Humidity Pressure Visibility Wind Dir Wind Speed Gust Speed Precip Events Conditions
12:53 AM 30.9 °F 22.8 °F 25.0 °F 79% 30.22 in 10.0 mi North 9.2 mph - N/A   Overcast
1:53 AM 30.9 °F 22.2 °F 25.0 °F 79% 30.24 in 10.0 mi NNW 10.4 mph - N/A   Overcast
2:53 AM 30.9 °F 22.2 °F 24.1 °F 76% 30.26 in 10.0 mi North 10.4 mph - N/A   Overcast
3:53 AM 30.9 °F 22.2 °F 24.1 °F 76% 30.26 in 10.0 mi NNW 10.4 mph - N/A   Overcast
4:53 AM 30.9 °F 24.3 °F 24.1 °F 76% 30.29 in 10.0 mi North 6.9 mph - N/A   Overcast
5:53 AM 30.2 °F 21.9 °F 24.8 °F 80% 30.28 in 10.0 mi North 9.2 mph - N/A   Overcast
6:53 AM 30.9 °F 23.5 °F 25.0 °F 79% 30.32 in 10.0 mi NNE 8.1 mph - N/A   Overcast
7:00 AM 30.2 °F 22.6 °F 24.8 °F 80% 30.30 in 10.0 mi NNE 8.1 mph - N/A   Overcast
7:53 AM 30.0 °F 22.4 °F 24.1 °F 79% 30.34 in 8.0 mi NNE 8.1 mph - N/A   Overcast
8:08 AM 28.4 °F 21.2 °F 24.8 °F 86% 30.32 in 8.0 mi NNE 6.9 mph - N/A   Overcast
8:53 AM 28.9 °F 22.8 °F 24.1 °F 82% 30.36 in 8.0 mi North 5.8 mph - N/A   Overcast
9:53 AM 30.0 °F 23.2 °F 24.1 °F 79% 30.37 in 9.0 mi ENE 6.9 mph - N/A   Overcast
10:14 AM 30.2 °F - 24.8 °F 80% 30.34 in 9.0 mi Calm Calm - N/A   Overcast
10:53 AM 30.9 °F 27.5 °F 24.1 °F 76% 30.36 in 10.0 mi ENE 3.5 mph - N/A   Overcast
11:53 AM 33.1 °F - 26.1 °F 75% 30.36 in 10.0 mi Calm Calm - N/A   Mostly Cloudy
12:22 PM 35.6 °F 31.7 °F 26.6 °F 70% 30.32 in 10.0 mi SE 4.6 mph - N/A   Mostly Cloudy
12:53 PM 36.0 °F - 26.1 °F 67% 30.35 in 10.0 mi Calm Calm - N/A   Mostly Cloudy
1:53 PM 37.9 °F - 27.0 °F 65% 30.34 in 10.0 mi Calm Calm - N/A   Scattered Clouds
2:53 PM 41.0 °F 38.0 °F 27.0 °F 57% 30.29 in 10.0 mi ENE 4.6 mph - N/A   Mostly Cloudy
3:53 PM 39.9 °F 35.1 °F 26.1 °F 58% 30.28 in 10.0 mi ESE 6.9 mph - N/A   Mostly Cloudy
4:53 PM 37.9 °F 30.9 °F 26.1 °F 62% 30.29 in 10.0 mi ESE 10.4 mph - N/A   Mostly Cloudy
5:53 PM 34.0 °F 25.0 °F 26.1 °F 73% 30.28 in 10.0 mi ESE 12.7 mph - N/A   Mostly Cloudy
6:53 PM 32.0 °F 23.0 °F 26.1 °F 79% 30.27 in 10.0 mi ESE 11.5 mph - N/A   Mostly Cloudy
7:53 PM 30.9 °F 21.2 °F 25.0 °F 79% 30.27 in 10.0 mi ESE 12.7 mph - N/A   Mostly Cloudy
8:53 PM 30.0 °F 19.5 °F 25.0 °F 82% 30.27 in 10.0 mi ESE 13.8 mph - N/A   Mostly Cloudy
9:53 PM 30.0 °F 21.1 °F 25.0 °F 82% 30.26 in 10.0 mi ESE 10.4 mph - N/A   Scattered Clouds
10:53 PM 28.9 °F 18.6 °F 25.0 °F 85% 30.26 in 8.0 mi ESE 12.7 mph - N/A   Mostly Cloudy
11:53 PM 28.9 °F 17.7 °F 25.0 °F 85% 30.24 in 7.0 mi ESE 15.0 mph - N/A   Clear